Regional Weather Roundup
Issued by NWS Albany, NY

Home | Current Version | Previous Version | Text Only | Print | Product List | Glossary On
Versions: 1 2 3 4 5 6 7 8 9 10 11 12 13 14 15 16 17 18 19 20 21 22 23 24 25 26 27 28 29 30 31 32 33 34 35 36 37 38 39 40 41 42 43 44 45 46 47 48 49 50
919
ASUS41 KALY 012010
RWRALY

NEW YORK STATE HOURLY WEATHER ROUNDUP
NATIONAL WEATHER SERVICE ALBANY NY
400 PM EDT SUN MAY 01 2016

NOTE: "FAIR" INDICATES FEW OR NO CLOUDS BELOW 12,000 FEET WITH NO
SIGNIFICANT WEATHER AND/OR NO OBSTRUCTIONS TO VISIBILITY.

NYZ032-033-038>043-046>054-057>066-NYZ062>081-082-084-012100-
EAST


CITY           SKY/WX    TMP DP  RH WIND       PRES   REMARKS
ALBANY         CLOUDY    46  41  82 SE10      30.13F
GLENS FALLS    CLOUDY    45  42  89 SW6       30.13F FOG
POUGHKEEPSIE   LGT RAIN  49  44  83 S3        30.14S
NEWBURGH       LGT RAIN  45  45 100 SE12      30.14F FOG
MONTGOMERY     LGT RAIN  47  45  93 MISG      30.11F FOG
WHITE PLAINS   LGT RAIN  46  45  96 SE7       30.13F FOG
ISLIP          LGT RAIN  47  44  90 E12       30.15F FOG
NEW YORK CITY  CLOUDY    50  42  74 SE10G16   30.14F
CENTRAL PARK   CLOUDY    49  41  74 VRB3      30.16F
$$

NYZ005>009-017-018-044>046-055-056-012100-
CENTRAL


CITY           SKY/WX    TMP DP  RH WIND       PRES   REMARKS
FULTON         LGT RAIN  49  44  83 VRB5      29.98F
SYRACUSE       DRIZZLE   48  43  82 SE14      29.98F
ROME           CLOUDY    46  45  96 E13       30.04F FOG
ELMIRA         CLOUDY    55  45  68 S10       29.96F
BINGHAMTON     CLOUDY    44  41  89 S10       30.00F
MONTICELLO     CLOUDY    43  43 100 E6        30.10F
$$

NYZ026>034-041>043-087-012100-
NORTH


CITY           SKY/WX    TMP DP  RH WIND       PRES   REMARKS
WATERTOWN      CLOUDY    50  42  74 SE7       30.01F
FORT DRUM      NOT AVBL
MASSENA        LGT RAIN  45  41  86 NE8       30.10F FOG
SARANAC LAKE   CLOUDY    45  40  82 SE6       30.03F
PLATTSBURGH    CLOUDY    46  44  93 SE6       30.11F
$$

NYZ001>004-010>016-019>021-085-012100-
WEST


CITY           SKY/WX    TMP DP  RH WIND       PRES   REMARKS
NIAGARA FALLS  CLOUDY    53  49  86 NW8       29.93S
BUFFALO        CLOUDY    55  50  83 NW3       29.92S
DUNKIRK        FOG       50  49  96 W6        29.95S VSB 1/4
JAMESTOWN      CLOUDY    55  52  88 W12       29.93S
WELLSVILLE     CLOUDY    56  51  84 S8        29.93F
ROCHESTER      LGT RAIN  51  50  96 NE8       29.92F FOG
PENN YAN       CLOUDY    56  49  77 S9        29.93F
$$

             KEY
       WCI = WIND CHILL INDEX
       VSB = VISIBILITY
       HX  = HEAT INDEX
$$




USA.gov is the U.S. government's official web portal to all federal, state and local government web resources and services.